Location: Unspecified
(48.1170°N, 0.0000°E)
Time: 06:02:18
(UTC+00:00)

MOZHAYETS 4 - Visible Passes

Search period start: 20 September 2019 00:00
Search period end: 30 September 2019 00:00
Orbit: 661 x 681 km, 98.1° (Epoch: 19 September)

Date Brightness Start Highest point End Pass type
(mag) Time Alt. Az. Time Alt. Az. Time Alt. Az.
20 Sep 10.5 00:56:31 16° NNE 00:56:31 16° NNE 00:57:42 10° N visible
20 Sep 10.2 02:34:46 13° NNW 02:34:46 13° NNW 02:35:18 10° NNW visible
21 Sep 10.3 01:30:09 17° N 01:30:09 17° N 01:31:16 10° N visible
22 Sep 10.8 00:25:31 11° NNE 00:25:31 11° NNE 00:25:46 10° NNE visible
22 Sep 10.2 02:03:46 15° NNW 02:03:46 15° NNW 02:04:30 10° NNW visible
23 Sep 10.6 00:59:08 14° NNE 00:59:08 14° NNE 00:59:53 10° N visible
23 Sep 10.4 02:37:23 10° NNW 02:37:23 10° NNW 02:37:26 10° NNW visible
24 Sep 10.5 01:32:45 14° N 01:32:45 14° N 01:33:26 10° N visible
25 Sep 10.4 02:06:22 12° NNW 02:06:22 12° NNW 02:06:39 10° NNW visible
26 Sep 10.8 01:01:45 12° N 01:01:45 12° N 01:02:05 10° N visible
27 Sep 10.6 01:35:23 11° N 01:35:23 11° N 01:35:36 10° N visible
